Regional Weather Roundup
Issued by NWS

Home | Current Version | Previous Version | Text Only | Print | Product List | Glossary Off
Versions: 1 2 3 4 5 6 7 8 9 10 11 12 13 14 15 16 17 18 19 20 21 22 23 24 25 26 27 28 29 30 31 32 33 34 35 36 37 38 39 40 41 42 43 44 45 46 47 48 49 50

000
ASUS43 KLMK 191510
RWRKY
KENTUCKY REGIONAL WEATHER ROUNDUP
NATIONAL WEATHER SERVICE LOUISVILLE KY
1100 AM EDT SUN APR 19 2015

NOTE "FAIR" INDICATES FEW OR NO CLOUDS BELOW 12,000 FEET
WITH NO SIGNIFICANT WEATHER AND/OR OBSTRUCTIONS TO VISIBILITY.

KYZ001>023-026-027-061>063-070>075-191600-
WESTERN AND SOUTH CENTRAL KENTUCKY

CITY           SKY/WX    TMP DP  RH WIND       PRES   REMARKS
PADUCAH        CLOUDY    66  63  90 S7        29.60F
HENDERSON      CLOUDY    63  61  94 CALM      29.63F
OWENSBORO      RAIN      64  64 100 SE6       29.65F FOG
HOPKINSVILLE   CLOUDY    68  64  88 VRB2      29.62F
BOWLING GREEN  LGT RAIN  67  63  87 E9        29.60F FOG
GLASGOW        LGT RAIN  65  64  97 SE10      29.64F
$$

KYZ024-025-028>034-038-045-046-053-191600-
NORTH CENTRAL KENTUCKY

CITY           SKY/WX    TMP DP  RH WIND       PRES   REMARKS
LOUISVILLE/SDF CLOUDY    63  59  87 E9        29.69F
LOUISVILLE/LOU CLOUDY    62  59  90 E8        29.70F
FORT KNOX      LGT RAIN  64  63  95 E9        29.66F
$$

KYZ035>037-039>044-047>052-055>060-089>105-191600-
NORTHEAST KENTUCKY

CITY           SKY/WX    TMP DP  RH WIND       PRES   REMARKS
LEXINGTON      LGT RAIN  62  58  86 SE13      29.76F
COVINGTON      LGT RAIN  59  54  83 SE10      29.78F
FRANKFORT      LGT RAIN  61  58  90 E9        29.73F
$$

KYZ054-064>069-076>088-106>120-191600-
SOUTHEAST KENTUCKY

CITY           SKY/WX    TMP DP  RH WIND       PRES   REMARKS
JACKSON        LGT RAIN  61  58  90 VRB3      29.82F FOG
LONDON         RAIN      64  59  83 E7        29.78F
SOMERSET       RAIN      61  61 100 E6        29.75F
MIDDLESBORO    RAIN      63  62  97 CALM      29.81F
MONTICELLO     CLOUDY    64  64 100 SE9       29.73F FOG
$$




USA.gov is the U.S. government's official web portal to all federal, state and local government web resources and services.